Time,TemperatureF,DewpointF,PressureIn,WindDirection,WindDirectionDegrees,WindSpeedMPH,WindSpeedGustMPH,Humidity,HourlyPrecipIn,Conditions,Clouds,dailyrainin,SoftwareType,DateUTC
2013-05-22 00:05:00,73.0,68.9,29.94,ENE,69,0.0,0.0,87,0.00,,,0.00,Wunderground v.1.15,2013-05-22 04:05:00,
2013-05-22 00:10:00,72.9,68.8,29.94,ENE,69,0.0,0.0,87,0.00,,,0.00,Wunderground v.1.15,2013-05-22 04:10:00,
2013-05-22 00:20:00,72.8,69.0,29.94,ENE,69,0.0,0.0,88,0.00,,,0.00,Wunderground v.1.15,2013-05-22 04:20:00,
2013-05-22 00:25:00,72.7,68.9,29.94,ENE,69,0.0,0.0,88,0.00,,,0.00,Wunderground v.1.15,2013-05-22 04:25:00,
2013-05-22 00:35:00,72.5,68.7,29.94,ENE,69,0.0,0.0,88,0.00,,,0.00,Wunderground v.1.15,2013-05-22 04:35:00,
2013-05-22 00:40:00,72.5,68.7,29.93,ENE,69,0.0,0.0,88,0.00,,,0.00,Wunderground v.1.15,2013-05-22 04:40:00,
2013-05-22 00:50:00,72.3,68.5,29.93,ENE,69,0.0,0.0,88,0.00,,,0.00,Wunderground v.1.15,2013-05-22 04:50:00,
2013-05-22 01:00:00,72.1,68.3,29.93,ENE,69,0.0,0.0,88,0.00,,,0.00,Wunderground v.1.15,2013-05-22 05:00:00,
2013-05-22 01:10:00,72.1,68.3,29.93,ENE,69,0.0,2.0,88,0.00,,,0.00,Wunderground v.1.15,2013-05-22 05:10:00,
2013-05-22 01:20:00,71.9,68.2,29.93,ENE,69,0.0,2.0,88,0.00,,,0.00,Wunderground v.1.15,2013-05-22 05:20:00,
2013-05-22 01:30:00,71.8,68.1,29.93,ENE,69,0.0,2.0,88,0.00,,,0.00,Wunderground v.1.15,2013-05-22 05:30:00,
2013-05-22 01:40:00,71.7,68.0,29.93,ENE,69,0.0,2.0,88,0.00,,,0.00,Wunderground v.1.15,2013-05-22 05:40:00,
2013-05-22 01:50:00,71.5,67.8,29.93,ENE,69,0.0,2.0,88,0.00,,,0.00,Wunderground v.1.15,2013-05-22 05:50:00,
2013-05-22 02:00:00,71.3,67.9,29.93,ENE,69,0.0,2.0,89,0.00,,,0.00,Wunderground v.1.15,2013-05-22 06:00:00,
2013-05-22 02:10:00,71.3,67.9,29.93,ENE,69,0.0,2.0,89,0.00,,,0.00,Wunderground v.1.15,2013-05-22 06:10:00,
2013-05-22 02:15:00,71.2,67.8,29.92,ENE,69,0.0,2.0,89,0.00,,,0.00,Wunderground v.1.15,2013-05-22 06:15:00,
2013-05-22 02:25:00,71.1,67.7,29.92,ESE,123,0.0,2.0,89,0.00,,,0.00,Wunderground v.1.15,2013-05-22 06:25:00,
2013-05-22 02:35:00,70.9,67.5,29.92,ESE,123,0.0,2.0,89,0.00,,,0.00,Wunderground v.1.15,2013-05-22 06:35:00,
2013-05-22 02:45:00,70.8,67.4,29.92,ESE,123,0.0,2.0,89,0.00,,,0.00,Wunderground v.1.15,2013-05-22 06:45:00,
2013-05-22 02:55:00,70.7,67.3,29.92,ESE,123,0.0,2.0,89,0.00,,,0.00,Wunderground v.1.15,2013-05-22 06:55:00,
2013-05-22 03:00:00,70.7,67.3,29.92,ESE,123,0.0,2.0,89,0.00,,,0.00,Wunderground v.1.15,2013-05-22 07:00:00,
2013-05-22 03:10:00,70.6,67.2,29.91,ESE,123,0.0,2.0,89,0.00,,,0.00,Wunderground v.1.15,2013-05-22 07:10:00,
2013-05-22 03:20:00,70.5,67.4,29.91,ESE,123,0.0,2.0,90,0.00,,,0.00,Wunderground v.1.15,2013-05-22 07:20:00,
2013-05-22 03:25:00,70.5,67.4,29.90,ESE,123,0.0,2.0,90,0.00,,,0.00,Wunderground v.1.15,2013-05-22 07:25:00,
2013-05-22 03:35:00,70.4,67.3,29.90,ESE,123,0.0,2.0,90,0.00,,,0.00,Wunderground v.1.15,2013-05-22 07:35:00,
2013-05-22 03:45:00,70.3,66.9,29.90,ESE,123,0.0,2.0,89,0.00,,,0.00,Wunderground v.1.15,2013-05-22 07:45:00,
2013-05-22 03:55:00,70.3,66.9,29.90,ESE,123,0.0,2.0,89,0.00,,,0.00,Wunderground v.1.15,2013-05-22 07:55:00,
2013-05-22 04:05:00,70.2,66.8,29.90,ESE,123,0.0,2.0,89,0.00,,,0.00,Wunderground v.1.15,2013-05-22 08:05:00,
2013-05-22 04:15:00,70.1,66.7,29.90,ESE,123,0.0,2.0,89,0.00,,,0.00,Wunderground v.1.15,2013-05-22 08:15:00,
2013-05-22 04:20:00,70.1,66.7,29.89,ESE,123,0.0,2.0,89,0.00,,,0.00,Wunderground v.1.15,2013-05-22 08:20:00,
2013-05-22 04:25:00,70.0,66.6,29.90,ESE,123,0.0,2.0,89,0.00,,,0.00,Wunderground v.1.15,2013-05-22 08:25:00,
2013-05-22 04:30:00,70.0,66.6,29.90,ESE,123,0.0,2.0,89,0.00,,,0.00,Wunderground v.1.15,2013-05-22 08:30:00,
2013-05-22 04:40:00,69.9,66.5,29.90,ESE,123,0.0,2.0,89,0.00,,,0.00,Wunderground v.1.15,2013-05-22 08:40:00,
2013-05-22 04:45:00,69.9,66.5,29.90,ESE,123,0.0,2.0,89,0.00,,,0.00,Wunderground v.1.15,2013-05-22 08:45:00,
2013-05-22 04:50:00,69.8,66.4,29.90,ESE,123,0.0,2.0,89,0.00,,,0.00,Wunderground v.1.15,2013-05-22 08:50:00,
2013-05-22 05:00:00,69.8,66.4,29.90,ESE,123,0.0,2.0,89,0.00,,,0.00,Wunderground v.1.15,2013-05-22 09:00:00,
2013-05-22 05:05:00,69.7,66.3,29.91,ESE,123,0.0,2.0,89,0.00,,,0.00,Wunderground v.1.15,2013-05-22 09:05:00,
2013-05-22 05:10:00,69.7,66.3,29.90,ESE,123,0.0,2.0,89,0.00,,,0.00,Wunderground v.1.15,2013-05-22 09:10:00,
2013-05-22 05:15:00,69.7,66.3,29.90,ESE,123,0.0,2.0,89,0.00,,,0.00,Wunderground v.1.15,2013-05-22 09:15:00,
2013-05-22 05:20:00,69.7,66.3,29.91,ESE,123,0.0,2.0,89,0.00,,,0.00,Wunderground v.1.15,2013-05-22 09:20:00,
2013-05-22 05:30:00,69.7,66.3,29.91,ESE,123,0.0,2.0,89,0.00,,,0.00,Wunderground v.1.15,2013-05-22 09:30:00,
2013-05-22 05:35:00,69.6,66.5,29.91,ESE,123,0.0,2.0,90,0.00,,,0.00,Wunderground v.1.15,2013-05-22 09:35:00,
2013-05-22 05:40:00,69.7,66.6,29.91,ESE,123,0.0,2.0,90,0.00,,,0.00,Wunderground v.1.15,2013-05-22 09:40:00,
2013-05-22 05:45:00,69.7,66.6,29.91,ESE,121,0.0,2.0,90,0.00,,,0.00,Wunderground v.1.15,2013-05-22 09:45:00,
2013-05-22 05:50:00,69.8,66.7,29.91,ESE,121,0.0,2.0,90,0.00,,,0.00,Wunderground v.1.15,2013-05-22 09:50:00,
2013-05-22 05:55:00,69.8,66.7,29.91,ESE,121,0.0,2.0,90,0.00,,,0.00,Wunderground v.1.15,2013-05-22 09:55:00,
2013-05-22 06:05:00,69.9,66.8,29.91,ESE,121,0.0,2.0,90,0.00,,,0.00,Wunderground v.1.15,2013-05-22 10:05:00,
2013-05-22 06:10:00,69.9,66.8,29.91,ESE,121,0.0,2.0,90,0.00,,,0.00,Wunderground v.1.15,2013-05-22 10:10:00,
2013-05-22 06:15:00,69.9,66.8,29.92,ESE,121,0.0,2.0,90,0.00,,,0.00,Wunderground v.1.15,2013-05-22 10:15:00,
2013-05-22 06:20:00,70.0,66.9,29.92,ESE,121,0.0,2.0,90,0.00,,,0.00,Wunderground v.1.15,2013-05-22 10:20:00,
2013-05-22 06:25:00,69.9,66.8,29.91,ESE,121,0.0,2.0,90,0.00,,,0.00,Wunderground v.1.15,2013-05-22 10:25:00,
2013-05-22 06:30:00,69.9,66.8,29.92,ESE,121,0.0,2.0,90,0.00,,,0.00,Wunderground v.1.15,2013-05-22 10:30:00,
2013-05-22 06:35:00,69.9,66.8,29.92,ESE,121,0.0,2.0,90,0.00,,,0.00,Wunderground v.1.15,2013-05-22 10:35:00,
2013-05-22 06:40:00,69.9,66.8,29.92,ESE,121,0.0,2.0,90,0.00,,,0.00,Wunderground v.1.15,2013-05-22 10:40:00,
2013-05-22 06:45:00,69.9,66.8,29.92,ESE,121,0.0,2.0,90,0.00,,,0.00,Wunderground v.1.15,2013-05-22 10:45:00,
2013-05-22 06:50:00,69.9,66.8,29.92,ESE,121,0.0,2.0,90,0.00,,,0.00,Wunderground v.1.15,2013-05-22 10:50:00,
2013-05-22 06:55:00,69.9,66.8,29.92,ESE,121,0.0,2.0,90,0.00,,,0.00,Wunderground v.1.15,2013-05-22 10:55:00,
2013-05-22 07:05:00,69.9,66.8,29.92,ESE,121,0.0,2.0,90,0.00,,,0.00,Wunderground v.1.15,2013-05-22 11:05:00,
2013-05-22 07:10:00,70.0,66.9,29.92,ESE,121,0.0,2.0,90,0.00,,,0.00,Wunderground v.1.15,2013-05-22 11:10:00,
2013-05-22 07:15:00,70.0,66.9,29.92,ESE,121,0.0,2.0,90,0.00,,,0.00,Wunderground v.1.15,2013-05-22 11:15:00,
2013-05-22 07:20:00,70.2,67.1,29.92,ESE,121,0.0,2.0,90,0.00,,,0.00,Wunderground v.1.15,2013-05-22 11:20:00,
2013-05-22 07:25:00,70.3,67.2,29.92,ESE,121,0.0,2.0,90,0.00,,,0.00,Wunderground v.1.15,2013-05-22 11:25:00,
2013-05-22 07:30:00,70.5,67.4,29.92,ESE,121,0.0,2.0,90,0.00,,,0.00,Wunderground v.1.15,2013-05-22 11:30:00,
2013-05-22 07:40:00,70.8,67.7,29.93,ESE,121,0.0,2.0,90,0.00,,,0.00,Wunderground v.1.15,2013-05-22 11:40:00,
2013-05-22 07:45:00,71.0,67.9,29.92,ESE,121,0.0,2.0,90,0.00,,,0.00,Wunderground v.1.15,2013-05-22 11:45:00,
2013-05-22 07:50:00,71.3,68.2,29.92,ESE,121,0.0,2.0,90,0.00,,,0.00,Wunderground v.1.15,2013-05-22 11:50:00,
2013-05-22 07:55:00,71.5,68.4,29.93,ESE,121,0.0,2.0,90,0.00,,,0.00,Wunderground v.1.15,2013-05-22 11:55:00,
2013-05-22 08:00:00,71.9,68.8,29.93,ESE,121,0.0,2.0,90,0.00,,,0.00,Wunderground v.1.15,2013-05-22 12:00:00,
2013-05-22 08:10:00,72.4,69.0,29.93,ESE,119,0.0,2.0,89,0.00,,,0.00,Wunderground v.1.15,2013-05-22 12:10:00,
2013-05-22 08:15:00,72.8,69.7,29.93,ESE,119,0.0,2.0,90,0.00,,,0.00,Wunderground v.1.15,2013-05-22 12:15:00,
2013-05-22 08:20:00,73.1,69.7,29.93,ESE,119,0.0,2.0,89,0.00,,,0.00,Wunderground v.1.15,2013-05-22 12:20:00,
2013-05-22 08:25:00,73.4,70.0,29.93,ESE,119,0.0,2.0,89,0.00,,,0.00,Wunderground v.1.15,2013-05-22 12:25:00,
2013-05-22 08:30:00,73.8,70.4,29.93,ESE,119,0.0,2.0,89,0.00,,,0.00,Wunderground v.1.15,2013-05-22 12:30:00,
2013-05-22 08:35:00,74.3,70.8,29.93,ESE,119,0.0,2.0,89,0.00,,,0.00,Wunderground v.1.15,2013-05-22 12:35:00,
2013-05-22 08:45:00,74.9,70.8,29.94,SE,127,0.0,2.0,87,0.00,,,0.00,Wunderground v.1.15,2013-05-22 12:45:00,
2013-05-22 08:50:00,75.3,71.2,29.94,SE,127,0.0,2.0,87,0.00,,,0.00,Wunderground v.1.15,2013-05-22 12:50:00,
2013-05-22 08:55:00,75.8,71.7,29.94,SE,127,0.0,2.0,87,0.00,,,0.00,Wunderground v.1.15,2013-05-22 12:55:00,
2013-05-22 09:00:00,76.1,71.6,29.94,SE,126,0.0,2.0,86,0.00,,,0.00,Wunderground v.1.15,2013-05-22 13:00:00,
2013-05-22 09:05:00,76.3,71.8,29.94,SSE,165,0.0,2.0,86,0.00,,,0.00,Wunderground v.1.15,2013-05-22 13:05:00,
2013-05-22 09:15:00,76.7,71.8,29.94,SE,146,0.0,2.0,85,0.00,,,0.00,Wunderground v.1.15,2013-05-22 13:15:00,
2013-05-22 09:20:00,76.9,72.0,29.95,SW,215,1.0,1.0,85,0.00,,,0.00,Wunderground v.1.15,2013-05-22 13:20:00,
2013-05-22 09:25:00,77.2,72.3,29.95,SW,215,1.0,2.0,85,0.00,,,0.00,Wunderground v.1.15,2013-05-22 13:25:00,
2013-05-22 09:30:00,77.4,72.5,29.95,SSW,203,1.0,1.0,85,0.00,,,0.00,Wunderground v.1.15,2013-05-22 13:30:00,
2013-05-22 09:35:00,77.5,72.3,29.95,SSW,201,1.0,2.0,84,0.00,,,0.00,Wunderground v.1.15,2013-05-22 13:35:00,
2013-05-22 09:45:00,78.1,72.9,29.95,SW,225,0.0,2.0,84,0.00,,,0.00,Wunderground v.1.15,2013-05-22 13:45:00,
2013-05-22 09:50:00,78.2,72.3,29.96,SW,236,2.0,4.0,82,0.00,,,0.00,Wunderground v.1.15,2013-05-22 13:50:00,
2013-05-22 10:00:00,78.2,72.6,29.95,SSW,208,1.0,1.0,83,0.00,,,0.00,Wunderground v.1.15,2013-05-22 14:00:00,
2013-05-22 10:05:00,78.3,72.3,29.95,SW,233,1.0,3.0,82,0.00,,,0.00,Wunderground v.1.15,2013-05-22 14:05:00,
2013-05-22 10:15:00,78.7,72.7,29.95,SW,230,1.0,2.0,82,0.00,,,0.00,Wunderground v.1.15,2013-05-22 14:15:00,
2013-05-22 10:20:00,78.8,72.8,29.95,SW,224,1.0,2.0,82,0.00,,,0.00,Wunderground v.1.15,2013-05-22 14:20:00,
2013-05-22 10:25:00,78.9,72.6,29.95,SSW,206,1.0,2.0,81,0.00,,,0.00,Wunderground v.1.15,2013-05-22 14:25:00,
2013-05-22 10:35:00,79.2,72.5,29.96,SSW,211,1.0,2.0,80,0.00,,,0.00,Wunderground v.1.15,2013-05-22 14:35:00,
2013-05-22 10:40:00,79.3,72.6,29.95,SSW,211,0.0,2.0,80,0.00,,,0.00,Wunderground v.1.15,2013-05-22 14:40:00,
2013-05-22 10:45:00,79.5,73.2,29.95,SSW,211,0.0,2.0,81,0.00,,,0.00,Wunderground v.1.15,2013-05-22 14:45:00,
2013-05-22 10:50:00,80.1,73.4,29.95,SW,235,1.0,2.0,80,0.00,,,0.00,Wunderground v.1.15,2013-05-22 14:50:00,
2013-05-22 10:55:00,80.3,73.2,29.95,WSW,239,1.0,2.0,79,0.00,,,0.00,Wunderground v.1.15,2013-05-22 14:55:00,
2013-05-22 11:00:00,80.3,73.2,29.95,WSW,240,0.0,2.0,79,0.00,,,0.00,Wunderground v.1.15,2013-05-22 15:00:00,
2013-05-22 11:10:00,80.3,73.2,29.96,WSW,240,0.0,2.0,79,0.00,,,0.00,Wunderground v.1.15,2013-05-22 15:10:00,
2013-05-22 11:15:00,80.8,73.3,29.96,SW,232,1.0,3.0,78,0.00,,,0.00,Wunderground v.1.15,2013-05-22 15:15:00,
2013-05-22 11:25:00,81.1,74.0,29.96,West,278,0.0,2.0,79,0.00,,,0.00,Wunderground v.1.15,2013-05-22 15:25:00,
2013-05-22 11:30:00,81.5,74.0,29.96,SSW,202,0.0,2.0,78,0.00,,,0.00,Wunderground v.1.15,2013-05-22 15:30:00,
2013-05-22 11:40:00,81.9,73.6,29.96,WSW,245,1.0,1.0,76,0.00,,,0.00,Wunderground v.1.15,2013-05-22 15:40:00,
2013-05-22 11:45:00,81.7,73.8,29.96,WSW,242,2.0,2.0,77,0.00,,,0.00,Wunderground v.1.15,2013-05-22 15:45:00,
2013-05-22 11:50:00,81.9,74.0,29.96,WSW,242,1.0,1.0,77,0.00,,,0.00,Wunderground v.1.15,2013-05-22 15:50:00,
2013-05-22 11:55:00,81.6,73.7,29.96,SW,218,0.0,2.0,77,0.00,,,0.00,Wunderground v.1.15,2013-05-22 15:55:00,
2013-05-22 12:00:00,81.8,73.5,29.96,WNW,286,1.0,1.0,76,0.00,,,0.00,Wunderground v.1.15,2013-05-22 16:00:00,
2013-05-22 12:05:00,81.8,73.5,29.96,SW,236,1.0,2.0,76,0.00,,,0.00,Wunderground v.1.15,2013-05-22 16:05:00,
2013-05-22 12:10:00,82.3,73.6,29.96,West,263,1.0,1.0,75,0.00,,,0.00,Wunderground v.1.15,2013-05-22 16:10:00,
2013-05-22 12:20:00,82.5,73.8,29.96,WSW,252,0.0,2.0,75,0.00,,,0.00,Wunderground v.1.15,2013-05-22 16:20:00,
2013-05-22 12:25:00,82.8,73.3,29.96,SW,232,1.0,2.0,73,0.00,,,0.00,Wunderground v.1.15,2013-05-22 16:25:00,
2013-05-22 12:35:00,83.7,73.7,29.95,WSW,242,1.0,2.0,72,0.00,,,0.00,Wunderground v.1.15,2013-05-22 16:35:00,
2013-05-22 12:40:00,83.6,73.6,29.95,WSW,248,1.0,1.0,72,0.00,,,0.00,Wunderground v.1.15,2013-05-22 16:40:00,
2013-05-22 12:50:00,83.7,73.3,29.95,SW,228,1.0,1.0,71,0.00,,,0.00,Wunderground v.1.15,2013-05-22 16:50:00,
2013-05-22 12:55:00,83.6,73.6,29.95,WNW,292,1.0,2.0,72,0.00,,,0.00,Wunderground v.1.15,2013-05-22 16:55:00,
2013-05-22 13:00:00,84.0,74.0,29.94,West,274,1.0,2.0,72,0.00,,,0.00,Wunderground v.1.15,2013-05-22 17:00:00,
2013-05-22 13:10:00,84.0,73.2,29.95,SW,223,3.0,3.0,70,0.00,,,0.00,Wunderground v.1.15,2013-05-22 17:10:00,
2013-05-22 13:15:00,83.9,73.1,29.94,WSW,251,3.0,3.0,70,0.00,,,0.00,Wunderground v.1.15,2013-05-22 17:15:00,
2013-05-22 13:25:00,84.1,73.3,29.94,SW,217,2.0,6.0,70,0.00,,,0.00,Wunderground v.1.15,2013-05-22 17:25:00,
2013-05-22 13:30:00,84.1,73.3,29.94,SW,218,3.0,3.0,70,0.00,,,0.00,Wunderground v.1.15,2013-05-22 17:30:00,
2013-05-22 13:35:00,84.6,73.7,29.94,SW,220,2.0,9.0,70,0.00,,,0.00,Wunderground v.1.15,2013-05-22 17:35:00,
2013-05-22 13:40:00,84.8,73.9,29.94,WSW,254,2.0,2.0,70,0.00,,,0.00,Wunderground v.1.15,2013-05-22 17:40:00,
2013-05-22 13:45:00,85.2,73.4,29.94,WNW,292,2.0,2.0,68,0.00,,,0.00,Wunderground v.1.15,2013-05-22 17:45:00,
2013-05-22 13:50:00,85.0,73.7,29.94,West,276,2.0,2.0,69,0.00,,,0.00,Wunderground v.1.15,2013-05-22 17:50:00,
2013-05-22 13:55:00,85.0,73.7,29.94,NW,304,2.0,2.0,69,0.00,,,0.00,Wunderground v.1.15,2013-05-22 17:55:00,
2013-05-22 14:00:00,85.0,72.8,29.94,SW,225,2.0,5.0,67,0.00,,,0.00,Wunderground v.1.15,2013-05-22 18:00:00,
2013-05-22 14:05:00,84.6,73.3,29.93,NW,314,2.0,5.0,69,0.00,,,0.00,Wunderground v.1.15,2013-05-22 18:05:00,
2013-05-22 14:15:00,84.9,73.6,29.93,WSW,255,1.0,2.0,69,0.00,,,0.00,Wunderground v.1.15,2013-05-22 18:15:00,
2013-05-22 14:20:00,85.0,73.3,29.93,West,259,2.0,4.0,68,0.00,,,0.00,Wunderground v.1.15,2013-05-22 18:20:00,
2013-05-22 14:25:00,85.0,73.3,29.93,NW,323,2.0,4.0,68,0.00,,,0.00,Wunderground v.1.15,2013-05-22 18:25:00,
2013-05-22 14:30:00,84.7,73.0,29.93,WSW,255,2.0,3.0,68,0.00,,,0.00,Wunderground v.1.15,2013-05-22 18:30:00,
2013-05-22 14:35:00,85.2,73.4,29.93,WSW,251,2.0,3.0,68,0.00,,,0.00,Wunderground v.1.15,2013-05-22 18:35:00,
2013-05-22 14:40:00,85.3,73.1,29.93,West,281,1.0,1.0,67,0.00,,,0.00,Wunderground v.1.15,2013-05-22 18:40:00,
2013-05-22 14:45:00,85.5,73.3,29.92,NNW,338,1.0,2.0,67,0.00,,,0.00,Wunderground v.1.15,2013-05-22 18:45:00,
2013-05-22 14:55:00,86.4,73.7,29.92,WSW,246,1.0,4.0,66,0.00,,,0.00,Wunderground v.1.15,2013-05-22 18:55:00,
2013-05-22 15:00:00,85.5,72.8,29.92,SW,236,3.0,3.0,66,0.00,,,0.00,Wunderground v.1.15,2013-05-22 19:00:00,
2013-05-22 15:05:00,85.2,73.0,29.92,SW,229,3.0,3.0,67,0.00,,,0.00,Wunderground v.1.15,2013-05-22 19:05:00,
2013-05-22 15:10:00,84.9,73.2,29.92,WNW,298,2.0,2.0,68,0.00,,,0.00,Wunderground v.1.15,2013-05-22 19:10:00,
2013-05-22 15:20:00,85.6,73.4,29.91,West,267,2.0,2.0,67,0.00,,,0.00,Wunderground v.1.15,2013-05-22 19:20:00,
2013-05-22 15:25:00,85.6,72.5,29.91,West,259,1.0,2.0,65,0.00,,,0.00,Wunderground v.1.15,2013-05-22 19:25:00,
2013-05-22 15:35:00,85.9,72.8,29.91,West,277,2.0,2.0,65,0.00,,,0.00,Wunderground v.1.15,2013-05-22 19:35:00,
2013-05-22 15:40:00,85.9,72.3,29.90,NW,308,1.0,1.0,64,0.00,,,0.00,Wunderground v.1.15,2013-05-22 19:40:00,
2013-05-22 15:50:00,85.3,72.2,29.90,NW,323,3.0,3.0,65,0.00,,,0.00,Wunderground v.1.15,2013-05-22 19:50:00,
2013-05-22 15:55:00,84.7,71.6,29.90,WSW,246,3.0,3.0,65,0.00,,,0.00,Wunderground v.1.15,2013-05-22 19:55:00,
2013-05-22 16:05:00,84.8,72.6,29.90,West,266,3.0,9.0,67,0.00,,,0.00,Wunderground v.1.15,2013-05-22 20:05:00,
2013-05-22 16:10:00,84.7,72.5,29.90,WNW,302,3.0,3.0,67,0.00,,,0.00,Wunderground v.1.15,2013-05-22 20:10:00,
2013-05-22 16:20:00,84.6,71.5,29.90,NW,309,1.0,2.0,65,0.00,,,0.00,Wunderground v.1.15,2013-05-22 20:20:00,
2013-05-22 16:25:00,84.8,71.7,29.89,NW,312,1.0,3.0,65,0.00,,,0.00,Wunderground v.1.15,2013-05-22 20:25:00,
2013-05-22 16:35:00,84.2,71.2,29.89,West,273,2.0,3.0,65,0.00,,,0.00,Wunderground v.1.15,2013-05-22 20:35:00,
2013-05-22 16:45:00,84.4,71.8,29.89,NW,313,2.0,2.0,66,0.00,,,0.00,Wunderground v.1.15,2013-05-22 20:45:00,
2013-05-22 16:50:00,84.5,71.9,29.89,WNW,302,1.0,1.0,66,0.00,,,0.00,Wunderground v.1.15,2013-05-22 20:50:00,
2013-05-22 17:00:00,84.9,71.4,29.89,WSW,247,1.0,1.0,64,0.00,,,0.00,Wunderground v.1.15,2013-05-22 21:00:00,
2013-05-22 17:10:00,85.0,71.0,29.89,NW,313,1.0,2.0,63,0.00,,,0.00,Wunderground v.1.15,2013-05-22 21:10:00,
2013-05-22 17:20:00,84.8,72.2,29.88,NW,315,0.0,2.0,66,0.00,,,0.00,Wunderground v.1.15,2013-05-22 21:20:00,
2013-05-22 17:30:00,84.4,71.3,29.89,NW,315,1.0,1.0,65,0.00,,,0.00,Wunderground v.1.15,2013-05-22 21:30:00,
2013-05-22 17:35:00,84.5,71.9,29.89,WNW,285,1.0,2.0,66,0.00,,,0.00,Wunderground v.1.15,2013-05-22 21:35:00,
2013-05-22 17:45:00,83.9,71.8,29.88,NW,313,1.0,2.0,67,0.00,,,0.00,Wunderground v.1.15,2013-05-22 21:45:00,
2013-05-22 17:55:00,83.3,71.6,29.89,WNW,302,1.0,3.0,68,0.00,,,0.00,Wunderground v.1.15,2013-05-22 21:55:00,
2013-05-22 18:05:00,82.9,71.3,29.88,NW,306,0.0,2.0,68,0.00,,,0.00,Wunderground v.1.15,2013-05-22 22:05:00,
2013-05-22 18:10:00,82.9,71.7,29.89,NW,308,0.0,2.0,69,0.00,,,0.00,Wunderground v.1.15,2013-05-22 22:10:00,
2013-05-22 18:20:00,82.7,72.3,29.89,West,265,0.0,2.0,71,0.00,,,0.00,Wunderground v.1.15,2013-05-22 22:20:00,
2013-05-22 18:30:00,82.2,72.3,29.89,West,273,0.0,2.0,72,0.00,,,0.00,Wunderground v.1.15,2013-05-22 22:30:00,
2013-05-22 18:35:00,81.9,72.4,29.90,West,273,0.0,2.0,73,0.00,,,0.00,Wunderground v.1.15,2013-05-22 22:35:00,
2013-05-22 18:45:00,81.4,72.3,29.90,NW,320,1.0,2.0,74,0.00,,,0.00,Wunderground v.1.15,2013-05-22 22:45:00,
2013-05-22 18:55:00,81.1,72.0,29.90,NW,316,0.0,2.0,74,0.00,,,0.00,Wunderground v.1.15,2013-05-22 22:55:00,
2013-05-22 19:05:00,80.7,72.0,29.89,WSW,248,0.0,2.0,75,0.00,,,0.00,Wunderground v.1.15,2013-05-22 23:05:00,
2013-05-22 19:15:00,80.6,71.9,29.90,WSW,252,0.0,2.0,75,0.00,,,0.00,Wunderground v.1.15,2013-05-22 23:15:00,
2013-05-22 19:25:00,80.3,72.4,29.90,WSW,256,0.0,2.0,77,0.00,,,0.00,Wunderground v.1.15,2013-05-22 23:25:00,
2013-05-22 19:35:00,79.9,72.0,29.91,WSW,257,0.0,2.0,77,0.00,,,0.00,Wunderground v.1.15,2013-05-22 23:35:00,
2013-05-22 19:40:00,79.9,72.0,29.91,WSW,257,0.0,2.0,77,0.00,,,0.00,Wunderground v.1.15,2013-05-22 23:40:00,
2013-05-22 19:45:00,79.9,72.0,29.91,WSW,257,0.0,2.0,77,0.00,,,0.00,Wunderground v.1.15,2013-05-22 23:45:00,
2013-05-22 19:50:00,79.8,71.9,29.91,West,266,0.0,2.0,77,0.00,,,0.00,Wunderground v.1.15,2013-05-22 23:50:00,
2013-05-22 20:00:00,79.7,72.2,29.91,West,265,0.0,2.0,78,0.00,,,0.00,Wunderground v.1.15,2013-05-23 00:00:00,
2013-05-22 20:10:00,79.6,72.1,29.91,West,270,0.0,2.0,78,0.00,,,0.00,Wunderground v.1.15,2013-05-23 00:10:00,
2013-05-22 20:15:00,79.5,72.4,29.91,West,270,0.0,2.0,79,0.00,,,0.00,Wunderground v.1.15,2013-05-23 00:15:00,
2013-05-22 20:20:00,79.4,72.3,29.91,West,270,0.0,2.0,79,0.00,,,0.00,Wunderground v.1.15,2013-05-23 00:20:00,
2013-05-22 20:25:00,79.3,72.2,29.91,West,270,0.0,2.0,79,0.00,,,0.00,Wunderground v.1.15,2013-05-23 00:25:00,
2013-05-22 20:35:00,79.1,72.4,29.91,West,270,0.0,2.0,80,0.00,,,0.00,Wunderground v.1.15,2013-05-23 00:35:00,
2013-05-22 20:40:00,79.0,72.3,29.91,West,270,0.0,2.0,80,0.00,,,0.00,Wunderground v.1.15,2013-05-23 00:40:00,
2013-05-22 20:45:00,78.9,72.2,29.91,West,270,0.0,2.0,80,0.00,,,0.00,Wunderground v.1.15,2013-05-23 00:45:00,
2013-05-22 20:50:00,78.9,72.2,29.91,West,270,0.0,2.0,80,0.00,,,0.00,Wunderground v.1.15,2013-05-23 00:50:00,
2013-05-22 20:55:00,78.8,72.5,29.92,West,270,0.0,2.0,81,0.00,,,0.00,Wunderground v.1.15,2013-05-23 00:55:00,
2013-05-22 21:00:00,78.7,72.4,29.92,West,270,0.0,2.0,81,0.00,,,0.00,Wunderground v.1.15,2013-05-23 01:00:00,
2013-05-22 21:10:00,78.6,72.3,29.91,West,270,0.0,2.0,81,0.00,,,0.00,Wunderground v.1.15,2013-05-23 01:10:00,
2013-05-22 21:20:00,78.5,72.5,29.92,West,270,0.0,2.0,82,0.00,,,0.00,Wunderground v.1.15,2013-05-23 01:20:00,
2013-05-22 21:25:00,78.4,72.4,29.92,West,270,0.0,2.0,82,0.00,,,0.00,Wunderground v.1.15,2013-05-23 01:25:00,
2013-05-22 21:35:00,78.3,72.3,29.92,West,270,0.0,2.0,82,0.00,,,0.00,Wunderground v.1.15,2013-05-23 01:35:00,
2013-05-22 21:45:00,78.2,72.3,29.92,West,270,0.0,2.0,82,0.00,,,0.00,Wunderground v.1.15,2013-05-23 01:45:00,
2013-05-22 21:55:00,78.0,72.4,29.91,West,270,0.0,2.0,83,0.00,,,0.00,Wunderground v.1.15,2013-05-23 01:55:00,
2013-05-22 22:05:00,77.8,72.2,29.92,West,270,0.0,2.0,83,0.00,,,0.00,Wunderground v.1.15,2013-05-23 02:05:00,
2013-05-22 22:15:00,77.7,72.1,29.92,West,270,0.0,2.0,83,0.00,,,0.00,Wunderground v.1.15,2013-05-23 02:15:00,
2013-05-22 22:25:00,77.5,72.3,29.92,West,270,0.0,2.0,84,0.00,,,0.00,Wunderground v.1.15,2013-05-23 02:25:00,
2013-05-22 22:35:00,77.4,72.2,29.93,West,270,0.0,2.0,84,0.00,,,0.00,Wunderground v.1.15,2013-05-23 02:35:00,
2013-05-22 22:45:00,77.2,72.0,29.93,West,270,0.0,2.0,84,0.00,,,0.00,Wunderground v.1.15,2013-05-23 02:45:00,
2013-05-22 22:55:00,77.0,71.8,29.93,West,270,0.0,2.0,84,0.00,,,0.00,Wunderground v.1.15,2013-05-23 02:55:00,
2013-05-22 23:10:00,76.6,71.7,29.93,West,270,0.0,2.0,85,0.00,,,0.00,Wunderground v.1.15,2013-05-23 03:10:00,
2013-05-22 23:25:00,76.3,71.8,29.93,West,270,0.0,2.0,86,0.00,,,0.00,Wunderground v.1.15,2013-05-23 03:25:00,
2013-05-22 23:35:00,76.2,71.7,29.93,West,270,0.0,2.0,86,0.00,,,0.00,Wunderground v.1.15,2013-05-23 03:35:00,
2013-05-22 23:50:00,75.8,71.3,29.94,West,270,0.0,2.0,86,0.00,,,0.00,Wunderground v.1.15,2013-05-23 03:50:00,
2013-05-22 23:55:00,75.7,71.2,29.94,West,270,0.0,2.0,86,0.00,,,0.00,Wunderground v.1.15,2013-05-23 03:55:00,